| time (UTC) | temp C | wind direction | speed KPH | gust KPH | rain 1hr cm | rain 24hr cm | rain mn cm | humidity % | barometer mb |
| 20260504214555 | 30 | 360 | 4.8 | 0.0 | 0.00 | 0.00 | 0.00 | 26 | 1003.5 |
| 20260504213050 | 30 | 360 | 3.2 | 0.0 | 0.00 | 0.00 | 0.00 | 27 | 1003.6 |
| 20260504211547 | 30 | 360 | 3.2 | 0.0 | 0.00 | 0.00 | 0.00 | 26 | 1003.8 |
| 20260504210049 | 29 | 360 | 4.8 | 0.0 | 0.00 | 0.00 | 0.00 | 26 | 1004.1 |
| 20260504204547 | 28 | 360 | 4.8 | 0.0 | 0.00 | 0.00 | 0.00 | 28 | 1004.3 |
| 20260504203052 | 28 | 360 | 6.4 | 0.0 | 0.00 | 0.00 | 0.00 | 28 | 1004.5 |
| 20260504201534 | 28 | 360 | 6.4 | 0.0 | 0.00 | 0.00 | 0.00 | 32 | 1004.7 |
| 20260504200032 | 27 | 360 | 6.4 | 0.0 | 0.00 | 0.00 | 0.00 | 31 | 1004.8 |
| 20260504194533 | 27 | 360 | 3.2 | 0.0 | 0.00 | 0.00 | 0.00 | 35 | 1005.0 |
| 20260504193025 | 26 | 360 | 4.8 | 0.0 | 0.00 | 0.00 | 0.00 | 40 | 1005.1 |
| 20260504191525 | 26 | 360 | 3.2 | 0.0 | 0.00 | 0.00 | 0.00 | 42 | 1005.3 |
| 20260504190018 | 25 | 360 | 3.2 | 0.0 | 0.00 | 0.00 | 0.00 | 44 | 1005.6 |
| 20260504184515 | 23 | 360 | 6.4 | 0.0 | 0.00 | 0.00 | 0.00 | 47 | 1005.7 |
| 20260504183012 | 23 | 360 | 6.4 | 0.0 | 0.00 | 0.00 | 0.00 | 48 | 1005.8 |
| 20260504181510 | 22 | 360 | 4.8 | 0.0 | 0.00 | 0.00 | 0.00 | 48 | 1005.9 |
| 20260504180008 | 22 | 360 | 4.8 | 0.0 | 0.00 | 0.00 | 0.00 | 49 | 1005.8 |
| 20260504174507 | 22 | 360 | 4.8 | 0.0 | 0.00 | 0.00 | 0.00 | 48 | 1006.0 |
| 20260504173005 | 21 | 360 | 4.8 | 0.0 | 0.00 | 0.00 | 0.00 | 50 | 1006.1 |
| 20260504171601 | 21 | 163 | 3.2 | 0.0 | 0.00 | 0.00 | 0.00 | 49 | 1006.2 |
| 20260504081606 | 13 | 360 | 1.6 | 0.0 | 0.00 | 0.00 | 0.00 | 68 | 1005.9 |
| 20260504044545 | 21 | 360 | 3.2 | 0.0 | 0.00 | 0.00 | 0.00 | 46 | 1005.9 |
| 20260504043041 | 22 | 360 | 1.6 | 0.0 | 0.00 | 0.00 | 0.00 | 45 | 1005.7 |
| 20260504041540 | 23 | 360 | 3.2 | 0.0 | 0.00 | 0.00 | 0.00 | 40 | 1005.6 |
| 20260504040040 | 22 | 360 | 4.8 | 0.0 | 0.00 | 0.00 | 0.00 | 40 | 1005.5 |
| 20260504034540 | 23 | 360 | 3.2 | 0.0 | 0.00 | 0.00 | 0.00 | 45 | 1005.5 |
| 20260504033040 | 24 | 360 | 3.2 | 0.0 | 0.00 | 0.00 | 0.00 | 41 | 1005.2 |
| 20260504031539 | 25 | 360 | 4.8 | 0.0 | 0.00 | 0.00 | 0.00 | 38 | 1005.2 |
| 20260504030042 | 26 | 360 | 1.6 | 0.0 | 0.00 | 0.00 | 0.00 | 32 | 1005.1 |
| 20260504024538 | 27 | 360 | 1.6 | 0.0 | 0.00 | 0.00 | 0.00 | 31 | 1005.0 |
| 20260504023037 | 27 | 360 | 1.6 | 0.0 | 0.00 | 0.00 | 0.00 | 30 | 1004.8 |
| 20260504021537 | 26 | 360 | 3.2 | 0.0 | 0.00 | 0.00 | 0.00 | 30 | 1004.8 |
| 20260504020037 | 27 | 360 | 4.8 | 0.0 | 0.00 | 0.00 | 0.00 | 29 | 1004.9 |
| 20260504014548 | 27 | 360 | 6.4 | 0.0 | 0.00 | 0.00 | 0.00 | 27 | 1004.9 |
| 20260504013040 | 27 | 360 | 6.4 | 0.0 | 0.00 | 0.00 | 0.00 | 28 | 1004.9 |
| 20260504011533 | 27 | 360 | 8.0 | 0.0 | 0.00 | 0.00 | 0.00 | 28 | 1005.0 |
| 20260504010031 | 28 | 360 | 6.4 | 0.0 | 0.00 | 0.00 | 0.00 | 27 | 1005.3 |
| 20260504004530 | 28 | 360 | 6.4 | 0.0 | 0.00 | 0.00 | 0.00 | 27 | 1005.6 |
| 20260504003028 | 28 | 360 | 6.4 | 0.0 | 0.00 | 0.00 | 0.00 | 26 | 1005.7 |
| 20260504001527 | 28 | 360 | 8.0 | 0.0 | 0.00 | 0.00 | 0.00 | 27 | 1005.8 |
| 20260504000038 | 29 | 360 | 4.8 | 0.0 | 0.00 | 0.00 | 0.00 | 25 | 1006.0 |
| 20260503234524 | 29 | 360 | 4.8 | 0.0 | 0.00 | 0.00 | 0.00 | 26 | 1006.2 |
| 20260503233024 | 29 | 360 | 4.8 | 0.0 | 0.00 | 0.00 | 0.00 | 26 | 1006.4 |
| 20260503231520 | 29 | 360 | 4.8 | 0.0 | 0.00 | 0.00 | 0.00 | 26 | 1006.6 |
| 20260503230018 | 29 | 360 | 6.4 | 0.0 | 0.00 | 0.00 | 0.00 | 25 | 1006.9 |
| 20260503224516 | 29 | 360 | 4.8 | 0.0 | 0.00 | 0.00 | 0.00 | 25 | 1007.2 |
| 20260503223013 | 30 | 360 | 1.6 | 0.0 | 0.00 | 0.00 | 0.00 | 25 | 1007.4 |
| 20260503221510 | 28 | 360 | 4.8 | 0.0 | 0.00 | 0.00 | 0.00 | 26 | 1007.7 |
| 20260503220009 | 28 | 360 | 3.2 | 0.0 | 0.00 | 0.00 | 0.00 | 26 | 1007.9 |